Terminal Aerodrome Forecast
Issued by NWS

Home | Current Version | Previous Version | Graphics & Text | Print | Product List | Glossary On
Versions: 1 2 3 4 5 6 7 8 9 10 11 12 13 14 15 16 17 18 19 20 21 22 23 24 25 26 27 28 29 30 31 32 33 34 35 36 37 38 39 40 41 42 43 44 45 46
686
FTUS43 KLOT 181140
TAFGYY
TAF
KGYY 181140Z 1812/1912 24008KT 5SM BR OVC007
     FM181700 23012KT P6SM BKN015
     FM182000 23010KT P6SM BKN025
     FM190000 22012KT P6SM SCT015 BKN250 WS020/27045KT=

USA.gov is the U.S. government's official web portal to all federal, state and local government web resources and services.